Regional Weather Roundup
Issued by NWS

Home | Current Version | Previous Version | Text Only | Print | Product List | Glossary On
Versions: 1 2 3 4 5 6 7 8 9 10 11 12 13 14 15 16 17 18 19 20 21 22 23 24 25 26 27 28 29 30 31 32 33 34 35 36 37 38 39 40 41 42 43 44 45 46 47 48 49 50
000
ASUS43 KOAX 220510
RWRNE

WEATHER ROUNDUP FOR NEBRASKA
NATIONAL WEATHER SERVICE OMAHA NE
1100 PM CST TUE FEB 21 2017

NOTES: SATELLITE DATA IS BEING USED TO AUGMENT CLOUD COVER ABOVE
       12000 FEET.
       "FAIR" INDICATES FEW OR NO CLOUDS BELOW 12,000 FEET WITH NO
       SIGNIFICANT WEATHER AND/OR OBSTRUCTIONS TO VISIBILITY.

  * THESE STATIONS DO NOT REPORT WEATHER SUCH AS RAIN...SNOW OR FOG.

NEZ001>004-019>022-054>056-220600-
NEBRASKA PANHANDLE

CITY           SKY/WX    TMP DP  RH WIND       PRES   REMARKS
SCOTTSBLUFF    CLEAR     50  21  32 VRB3      29.78F
ALLIANCE       CLEAR     42  21  43 W7        29.77F
CHADRON        CLEAR     51  34  52 NW13      29.76R
KIMBALL        CLEAR     45  21  38 W12       29.84F
SIDNEY         CLEAR     54  15  21 W16       29.80F
$$

NEZ057>060-069>072-079>082-220600-
SOUTHWEST NEBRASKA

CITY           SKY/WX    TMP DP  RH WIND       PRES   REMARKS
NORTH PLATTE   CLEAR     36  26  67 N5        29.80R WCI  32
IMPERIAL       CLOUDY    49  21  33 SW9       29.80F
LEXINGTON      PTCLDY    52  27  37 W5        29.78F
MCCOOK         PTCLDY    54  27  35 W8        29.79F
OGALLALA       CLEAR     33  22  63 W5        29.80F WCI  29
$$

NEZ005>010-023>029-035>040-094-220600-
NORTH CENTRAL NEBRASKA

CITY           SKY/WX    TMP DP  RH WIND       PRES   REMARKS
VALENTINE      PTCLDY    47  29  49 NW8       29.72F
AINSWORTH      CLEAR     47  32  56 SW9       29.73F
BROKEN BOW     PTCLDY    38  27  64 CALM      29.77F
O`NEILL        CLEAR     52  33  46 SW9       29.73S
ORD            PTCLDY    51  30  44 CALM      29.74F
THEDFORD       CLEAR     44  28  54 W5        29.76F
$$

NEZ041-046>049-061>064-073>077-083>087-220600-
SOUTH CENTRAL NEBRASKA

CITY           SKY/WX    TMP DP  RH WIND       PRES   REMARKS
GRAND ISLAND   PTCLDY    56  32  40 SW12      29.77S
AURORA         PTCLDY    54  29  38 SW10      29.76F
HASTINGS       CLEAR     54  28  36 S8        29.78F
HEBRON         CLEAR     54  30  40 S15       29.79F
HOLDREGE       PTCLDY    53  25  33 SW8       29.78F
KEARNEY *      PTCLDY    55  27  33 SW7       29.79S
YORK           CLEAR     50  32  50 SW8       29.76F
$$

NEZ011>018-030>034-042>045-220600-
NORTHEAST NEBRASKA

CITY           SKY/WX    TMP DP  RH WIND       PRES   REMARKS
NORFOLK        PTCLDY    52  34  50 SW13      29.71R
ALBION         PTCLDY    52  32  46 CALM      29.74S
BLAIR          CLEAR     54  37  53 S14       29.75F
FREMONT        CLEAR     56  32  40 S14       29.74F
TEKAMAH        PTCLDY    50  38  63 S15       29.73F
WAYNE          CLEAR     49  35  58 SW6       29.70F
$$

NEZ050>053-065>068-078-088>093-220600-
SOUTHEAST NEBRASKA

CITY           SKY/WX    TMP DP  RH WIND       PRES   REMARKS
LINCOLN        CLEAR     56  34  43 S12       29.78F
OMAHA EPPLEY   PTCLDY    49  36  61 S12       29.77F
BEATRICE       CLEAR     55  35  48 S9        29.81S
FALLS CITY     CLEAR     55  34  45 S12       29.83F
NEBRASKA CITY  CLEAR     52  30  42 SW15      29.80F
PLATTSMOUTH    CLEAR     54  32  43 S17       29.78F
$$

NEZ044-045-051>053-067-220600-
OMAHA AREA

CITY           SKY/WX    TMP DP  RH WIND       PRES   REMARKS
OMAHA EPPLEY   PTCLDY    49  36  61 S12       29.77F
BLAIR          CLEAR     54  37  53 S14       29.75F
FREMONT        CLEAR     56  32  40 S14       29.74F
MILLARD        CLEAR     55  38  54 SE5       29.77F
OFFUTT AFB     CLEAR     52  35  53 SE9       29.77F
PLATTSMOUTH    CLEAR     54  32  43 S17       29.78F
WAHOO          FAIR      54  33  44 S12       29.76F
$$



USA.gov is the U.S. government's official web portal to all federal, state and local government web resources and services.